Regional Weather Roundup
Issued by NWS Little Rock, AR

Home | Current Version | Previous Version | Graphics & Text | Print | Product List | Glossary On
Versions: 1 2 3 4 5 6 7 8 9 10 11 12 13 14 15 16 17 18 19 20 21 22 23 24 25 26 27 28 29 30 31 32
000
ASUS44 KLZK 301405
RWRLZK

WEATHER ROUNDUP FOR ARKANSAS
NATIONAL WEATHER SERVICE LITTLE ROCK AR
900 AM CDT FRI SEP 30 2016

NOTE: "FAIR" INDICATES FEW OR NO CLOUDS BELOW 12,000 FEET WITH NO
SIGNIFICANT WEATHER AND/OR OBSTRUCTIONS TO VISIBILITY.

ARZ001-003-010-029-301500-
NORTHWEST ARKANSAS

CITY           SKY/WX    TMP DP  RH WIND       PRES   REMARKS
FAYETTEVILLE   SUNNY     51  49  92 S3        30.23S
FORT SMITH     SUNNY     59  52  77 W9        30.21S
HARRISON       SUNNY     58  50  75 W7        30.20S
BENTONVILLE    SUNNY     55  46  71 CALM      30.24R
ROGERS         SUNNY     54  50  86 CALM      30.24R
SILOAM SPGS    SUNNY     54  45  71 CALM      30.25R
HIGHFILL       SUNNY     58  52  80 CALM      30.23R
SPRINGDALE     SUNNY     55  50  82 CALM      30.24S
$$

ARZ004-005-016-301500-
NORTH CENTRAL ARKANSAS

CITY           SKY/WX    TMP DP  RH WIND       PRES   REMARKS
BATESVILLE     SUNNY     61  52  72 W6        30.16S
FLIPPIN        SUNNY     61  50  67 W7        30.17R
MTN HOME       SUNNY     59  53  80 CALM      30.18R
$$

ARZ040-041-301500-
WEST CENTRAL ARKANSAS

CITY           SKY/WX    TMP DP  RH WIND       PRES   REMARKS
MENA           SUNNY     63  55  77 CALM      30.22S
MOUNT IDA      SUNNY     58  53  84 CALM      30.18R
$$

ARZ009-017-025-026-028-301500-
NORTHEAST ARKANSAS

CITY           SKY/WX    TMP DP  RH WIND       PRES   REMARKS
CORNING          N/A     61  61 100 NW6       30.12S
JONESBORO      SUNNY     64  56  75 NW6       30.12S
NEWPORT        PTSUNNY   62  56  80 NW13      30.14S
WALNUT RIDGE   SUNNY     63  55  77 NW10      30.12S
BLYTHEVILLE    CLOUDY    62  57  83 CALM      30.11S
NW BLYTHEVILLE CLOUDY    61  55  82 W7        30.11
$$

ARZ022-023-033-042-044-301500-
CENTRAL ARKANSAS

CITY           SKY/WX    TMP DP  RH WIND       PRES   REMARKS
LITTLE ROCK    SUNNY     67  51  56 NW10      30.17R
N LITTLE ROCK    N/A     62  53  71 NW6       30.16R
JACKSONVILLE   SUNNY     64  53  67 W7        30.16R
SEARCY         SUNNY     64  55  72 MISG        N/A
HOT SPRINGS    SUNNY     61  53  75 SW5       30.18R
RUSSELLVILLE   SUNNY     62  54  74 NW5       30.19R
$$

ARZ036-301500-
EAST ARKANSAS

CITY           SKY/WX    TMP DP  RH WIND       PRES   REMARKS
WEST MEMPHIS   LGT RAIN  65  57  75 N12       30.11R
$$

ARZ050-053-066-070-073-301500-
SOUTHWEST ARKANSAS

CITY           SKY/WX    TMP DP  RH WIND       PRES   REMARKS
ARKADELPHIA    FAIR      61  57  87 CALM      30.18S
TEXARKANA      SUNNY     64  53  67 NW3       30.20R
EL DORADO      SUNNY     62  55  77 N3        30.19R
DE QUEEN       SUNNY     59  56  89 CALM      30.19R
$$

ARZ056-057-069-301500-
SOUTHEAST ARKANSAS

CITY           SKY/WX    TMP DP  RH WIND       PRES   REMARKS
PINE BLUFF     SUNNY     63  54  72 NW10      30.16S
STUTTGART      SUNNY     63  52  67 NW10      30.16S
MONTICELLO     SUNNY     64  56  75 NW3       30.16S

$$






USA.gov is the U.S. government's official web portal to all federal, state and local government web resources and services.